TimeCST,TemperatureF,Dew PointF,Humidity,Sea Level PressureIn,VisibilityMPH,Wind Direction,Wind SpeedMPH,Gust SpeedMPH,PrecipitationIn,Events,Conditions,WindDirDegrees,DateUTC
12:10 AM,24.8,12.2,59,30.26,10.0,SE,6.9,-,N/A,,Scattered Clouds,140,2013-01-22 06:10:00
12:30 AM,24.8,14.0,64,30.26,10.0,SE,8.1,-,N/A,,Partly Cloudy,140,2013-01-22 06:30:00
12:50 AM,24.8,14.0,64,30.25,10.0,SE,8.1,-,N/A,,Partly Cloudy,140,2013-01-22 06:50:00
1:10 AM,24.8,14.0,64,30.25,10.0,SSE,8.1,-,N/A,,Partly Cloudy,150,2013-01-22 07:10:00
1:30 AM,24.8,14.0,64,30.24,10.0,SSE,9.2,-,N/A,,Partly Cloudy,160,2013-01-22 07:30:00
1:50 AM,23.0,14.0,68,30.24,10.0,South,6.9,-,N/A,,Partly Cloudy,170,2013-01-22 07:50:00
2:10 AM,23.0,14.0,68,30.23,10.0,SSE,9.2,-,N/A,,Clear,160,2013-01-22 08:10:00
2:30 AM,23.0,14.0,68,30.23,10.0,South,8.1,-,N/A,,Clear,170,2013-01-22 08:30:00
2:50 AM,23.0,14.0,68,30.23,10.0,South,8.1,-,N/A,,Partly Cloudy,180,2013-01-22 08:50:00
3:10 AM,19.4,14.0,80,30.22,10.0,SSW,8.1,-,N/A,,Scattered Clouds,200,2013-01-22 09:10:00
3:30 AM,21.2,14.0,74,30.22,10.0,South,9.2,-,N/A,,Scattered Clouds,190,2013-01-22 09:30:00
3:50 AM,19.4,14.0,80,30.23,10.0,South,6.9,-,N/A,,Scattered Clouds,180,2013-01-22 09:50:00
4:10 AM,21.2,14.0,74,30.23,10.0,South,3.5,-,N/A,,Scattered Clouds,180,2013-01-22 10:10:00
4:30 AM,21.2,14.0,74,30.21,10.0,SSE,6.9,-,N/A,,Partly Cloudy,150,2013-01-22 10:30:00
4:50 AM,23.0,14.0,68,30.21,10.0,SE,4.6,-,N/A,,Partly Cloudy,140,2013-01-22 10:50:00
5:10 AM,21.2,14.0,74,30.23,10.0,East,4.6,-,N/A,,Scattered Clouds,80,2013-01-22 11:10:00
5:30 AM,21.2,14.0,74,30.23,10.0,East,5.8,-,N/A,,Partly Cloudy,80,2013-01-22 11:30:00
5:50 AM,21.2,14.0,74,30.21,10.0,East,6.9,-,N/A,,Partly Cloudy,100,2013-01-22 11:50:00
6:10 AM,21.2,14.0,74,30.21,10.0,ESE,6.9,-,N/A,,Scattered Clouds,120,2013-01-22 12:10:00
6:30 AM,21.2,14.0,74,30.21,10.0,SE,6.9,-,N/A,,Scattered Clouds,130,2013-01-22 12:30:00
6:50 AM,19.4,14.0,80,30.20,10.0,ESE,5.8,-,N/A,,Partly Cloudy,120,2013-01-22 12:50:00
7:10 AM,19.4,14.0,80,30.20,10.0,SSE,8.1,-,N/A,,Partly Cloudy,150,2013-01-22 13:10:00
7:30 AM,19.4,14.0,80,30.20,10.0,ESE,5.8,-,N/A,,Partly Cloudy,110,2013-01-22 13:30:00
7:50 AM,19.4,15.8,86,30.20,10.0,ENE,5.8,-,N/A,,Clear,70,2013-01-22 13:50:00
8:10 AM,21.2,15.8,80,30.19,10.0,ESE,5.8,-,N/A,,Clear,110,2013-01-22 14:10:00
8:30 AM,23.0,15.8,74,30.19,8.0,SE,9.2,-,N/A,,Clear,140,2013-01-22 14:30:00
8:50 AM,24.8,17.6,74,30.19,10.0,SE,11.5,-,N/A,,Clear,140,2013-01-22 14:50:00
9:10 AM,26.6,17.6,69,30.18,10.0,SSE,11.5,-,N/A,,Clear,150,2013-01-22 15:10:00
9:30 AM,28.4,17.6,64,30.19,10.0,South,11.5,-,N/A,,Clear,170,2013-01-22 15:30:00
9:50 AM,32.0,17.6,55,30.21,10.0,SSE,8.1,-,N/A,,Clear,160,2013-01-22 15:50:00
10:15 AM,32.0,19.4,60,30.20,10.0,South,6.9,-,N/A,,Clear,170,2013-01-22 16:15:00
10:30 AM,33.8,19.4,56,30.21,10.0,South,8.1,-,N/A,,Clear,180,2013-01-22 16:30:00
10:50 AM,37.4,19.4,48,30.21,10.0,SSW,6.9,-,N/A,,Clear,200,2013-01-22 16:50:00
11:10 AM,39.2,19.4,45,30.21,10.0,SW,6.9,-,N/A,,Clear,220,2013-01-22 17:10:00
11:50 AM,42.8,21.2,42,30.20,10.0,South,9.2,-,N/A,,Clear,190,2013-01-22 17:50:00
12:15 PM,46.4,23.0,40,30.18,10.0,South,4.6,-,N/A,,Clear,190,2013-01-22 18:15:00
12:30 PM,46.4,23.0,40,30.17,10.0,South,6.9,-,N/A,,Clear,190,2013-01-22 18:30:00
12:50 PM,48.2,23.0,37,30.15,10.0,Calm,Calm,-,N/A,,Clear,0,2013-01-22 18:50:00
1:10 PM,48.2,23.0,37,30.15,10.0,Calm,Calm,-,N/A,,Clear,0,2013-01-22 19:10:00
1:30 PM,50.0,24.8,37,30.14,10.0,SW,4.6,-,N/A,,Clear,230,2013-01-22 19:30:00
1:50 PM,50.0,24.8,37,30.13,10.0,Calm,Calm,-,N/A,,Clear,0,2013-01-22 19:50:00
2:10 PM,51.8,24.8,35,30.12,10.0,NNW,3.5,-,N/A,,Clear,330,2013-01-22 20:10:00
2:30 PM,53.6,24.8,33,30.12,10.0,Calm,Calm,-,N/A,,Clear,0,2013-01-22 20:30:00
2:50 PM,53.6,24.8,33,30.12,10.0,NE,3.5,-,N/A,,Clear,50,2013-01-22 20:50:00
3:15 PM,53.6,24.8,33,30.13,10.0,NNE,6.9,-,N/A,,Clear,30,2013-01-22 21:15:00
3:30 PM,53.6,24.8,33,30.13,10.0,NNE,11.5,-,N/A,,Clear,30,2013-01-22 21:30:00
3:50 PM,51.8,24.8,35,30.14,10.0,NE,9.2,-,N/A,,Clear,50,2013-01-22 21:50:00
4:10 PM,50.0,24.8,37,30.15,10.0,NNE,10.4,-,N/A,,Clear,30,2013-01-22 22:10:00
4:30 PM,50.0,24.8,37,30.15,10.0,NNE,12.7,-,N/A,,Clear,20,2013-01-22 22:30:00
4:50 PM,48.2,23.0,37,30.15,10.0,NNE,11.5,-,N/A,,Clear,30,2013-01-22 22:50:00
5:10 PM,48.2,23.0,37,30.14,10.0,NE,9.2,-,N/A,,Clear,40,2013-01-22 23:10:00
5:30 PM,44.6,23.0,43,30.15,10.0,NE,8.1,-,N/A,,Clear,50,2013-01-22 23:30:00
5:50 PM,42.8,23.0,46,30.15,10.0,NE,9.2,-,N/A,,Clear,50,2013-01-22 23:50:00
6:10 PM,41.0,23.0,49,30.15,10.0,NE,6.9,-,N/A,,Clear,50,2013-01-23 00:10:00
6:30 PM,41.0,23.0,49,30.15,10.0,NE,4.6,-,N/A,,Clear,50,2013-01-23 00:30:00
6:50 PM,37.4,23.0,56,30.16,10.0,NNE,6.9,-,N/A,,Partly Cloudy,20,2013-01-23 00:50:00
7:10 PM,37.4,23.0,56,30.17,10.0,NNE,6.9,-,N/A,,Clear,20,2013-01-23 01:10:00
7:30 PM,37.4,23.0,56,30.16,10.0,NNE,4.6,-,N/A,,Clear,30,2013-01-23 01:30:00
7:50 PM,37.4,23.0,56,30.17,10.0,NNE,6.9,-,N/A,,Clear,20,2013-01-23 01:50:00
9:30 PM,33.8,21.2,60,30.20,10.0,NNE,11.5,-,N/A,,Scattered Clouds,30,2013-01-23 03:30:00
9:50 PM,35.6,21.2,56,30.21,10.0,NNE,11.5,-,N/A,,Scattered Clouds,30,2013-01-23 03:50:00
10:10 PM,35.6,21.2,56,30.22,10.0,NNE,10.4,-,N/A,,Scattered Clouds,20,2013-01-23 04:10:00
10:30 PM,33.8,21.2,60,30.22,10.0,NNE,9.2,-,N/A,,Partly Cloudy,30,2013-01-23 04:30:00
10:50 PM,32.0,19.4,60,30.22,10.0,NNE,6.9,-,N/A,,Clear,30,2013-01-23 04:50:00
11:10 PM,32.0,19.4,60,30.21,10.0,NNE,4.6,-,N/A,,Clear,20,2013-01-23 05:10:00
11:30 PM,32.0,19.4,60,30.22,10.0,North,5.8,-,N/A,,Clear,360,2013-01-23 05:30:00
11:50 PM,32.0,19.4,60,30.23,10.0,North,6.9,-,N/A,,Partly Cloudy,10,2013-01-23 05:50:00